Weather History for Frankfort, MI

Change the Weather History Date:

Monday, September 16, 2013

  Actual Average (KTVC) Record (KTVC)
Temperature  
Mean Temperature 49 °F 60 °F  
Max Temperature 57 °F 70 °F 90 °F (1955)
Min Temperature 41 °F 50 °F 32 °F (1964)
Degree Days  
Heating Degree Days 16 6  
Month to date heating degree days 69  
Since 1 July heating degree days 138  
Cooling Degree Days 0 1  
Month to date cooling degree days 28  
Year to date cooling degree days 397  
Moisture  
Dew Point 41 °F    
Average Humidity 69    
Maximum Humidity 93    
Minimum Humidity 55    
Precipitation  
Precipitation 0.00 in 0.11 in 1.45 in (1942)
Month to date precipitation 1.89  
Year to date precipitation 23.00  
Sea Level Pressure  
Sea Level Pressure 30.35 in    
Wind  
Wind Speed 6 mph (NNE)    
Max Wind Speed 10 mph    
Max Gust Speed 18 mph    
Visibility 10 miles    
Events      
T = Trace of Precipitation, MM = Missing Value Source: NWS Daily Summary

Daily Weather History Graph

Daily Weather History Graph

Search for Another Location

Airport:

Trip Planner

Search our weather history database for the weather conditions in past years. The results will help you decide how hot, cold, wet, or windy it might be!

Date:

Astronomy

Sep. 16, 2013 Rise Set
Actual Time 7:25 AM EDT 7:53 PM EDT
Civil Twilight 6:55 AM EDT 8:22 PM EDT
Nautical Twilight 6:21 AM EDT 8:56 PM EDT
Astronomical Twilight 5:45 AM EDT 9:32 PM EDT
Moon 6:06 PM EDT (9/16) 4:04 AM EDT (9/16)
Length of Visible Light 13h 26m
Length of Day
12h 27m
Waxing Gibbous, 90% of the Moon is Illuminated
Sep 16
Waxing Gibbous
Sep 19
Full
Sep 26
Last Quarter
Oct 4
New
Oct 11
First Quarter

Hourly Weather History & Observations

Time (EDT) Temp. Dew Point Humidity Pressure Visibility Wind Dir Wind Speed Gust Speed Precip Events Conditions
12:15 AM 52.7 °F 42.8 °F 69% 30.23 in 10.0 mi North 8.1 mph - N/A   Overcast
12:35 AM 52.2 °F 41.9 °F 68% 30.23 in 10.0 mi North 6.9 mph - N/A   Overcast
12:55 AM 52.0 °F 41.9 °F 69% 30.23 in 10.0 mi North 4.6 mph - N/A   Overcast
1:15 AM 52.2 °F 41.7 °F 68% 30.23 in 10.0 mi NNE 8.1 mph - N/A   Overcast
1:35 AM 52.2 °F 41.7 °F 68% 30.24 in 10.0 mi NNE 6.9 mph 18.4 mph N/A   Overcast
1:55 AM 51.8 °F 41.0 °F 67% 30.24 in 10.0 mi North 4.6 mph 9.2 mph N/A   Mostly Cloudy
2:15 AM 51.6 °F 41.0 °F 67% 30.24 in 10.0 mi NNE 6.9 mph - N/A   Mostly Cloudy
2:36 AM 51.8 °F 41.4 °F 68% 30.25 in 10.0 mi NNE 3.5 mph 16.1 mph N/A   Overcast
2:56 AM 51.1 °F 41.4 °F 69% 30.25 in 10.0 mi North 6.9 mph - N/A   Overcast
3:16 AM 50.9 °F 41.0 °F 69% 30.25 in 10.0 mi Calm Calm - N/A   Mostly Cloudy
3:36 AM 51.1 °F 41.2 °F 69% 30.26 in 10.0 mi NNE 6.9 mph - N/A   Mostly Cloudy
3:56 AM 51.3 °F 41.4 °F 69% 30.26 in 10.0 mi NE 8.1 mph - N/A   Overcast
4:11 AM 50.9 °F 41.0 °F 69% 30.26 in 10.0 mi NE 5.8 mph - N/A   Overcast
4:31 AM 50.2 °F 41.0 °F 71% 30.27 in 10.0 mi North 5.8 mph - N/A   Mostly Cloudy
4:51 AM 49.3 °F 40.8 °F 73% 30.27 in 10.0 mi North 3.5 mph - N/A   Scattered Clouds
5:11 AM 49.3 °F 41.2 °F 74% 30.28 in 10.0 mi North 4.6 mph - N/A   Scattered Clouds
5:31 AM 50.2 °F 41.7 °F 73% 30.28 in 10.0 mi North 5.8 mph - N/A   Mostly Cloudy
5:52 AM 50.0 °F 42.1 °F 74% 30.29 in 10.0 mi North 3.5 mph - N/A   Mostly Cloudy
6:12 AM 50.5 °F 43.0 °F 75% 30.29 in 10.0 mi NNW 5.8 mph - N/A   Overcast
6:32 AM 50.5 °F 43.2 °F 76% 30.31 in 10.0 mi ENE 6.9 mph - N/A   Overcast
6:52 AM 49.3 °F 42.1 °F 76% 30.32 in 10.0 mi ENE 3.5 mph - N/A   Mostly Cloudy
7:12 AM 49.3 °F 41.5 °F 75% 30.33 in 10.0 mi ENE 3.5 mph - N/A   Mostly Cloudy
7:32 AM 48.7 °F 40.1 °F 72% 30.34 in 10.0 mi NE 5.8 mph - N/A   Overcast
7:52 AM 48.6 °F 40.1 °F 73% 30.35 in 10.0 mi ENE 4.6 mph - N/A   Overcast
8:12 AM 48.6 °F 39.7 °F 72% 30.36 in 10.0 mi East 5.8 mph - N/A   Overcast
8:32 AM 48.2 °F 38.5 °F 69% 30.37 in 10.0 mi East 6.9 mph - N/A   Overcast
8:53 AM 46.9 °F 37.9 °F 71% 30.37 in 10.0 mi NE 9.2 mph - N/A   Mostly Cloudy
9:13 AM 47.5 °F 38.5 °F 71% 30.38 in 10.0 mi NNE 4.6 mph - N/A   Mostly Cloudy
9:33 AM 47.8 °F 38.7 °F 70% 30.39 in 10.0 mi NE 5.8 mph - N/A   Mostly Cloudy
9:53 AM 48.7 °F 38.5 °F 68% 30.40 in 10.0 mi ENE 8.1 mph - N/A   Scattered Clouds
10:13 AM 49.8 °F 38.7 °F 65% 30.40 in 10.0 mi ENE 3.5 mph - N/A   Scattered Clouds
10:33 AM 49.5 °F 39.0 °F 67% 30.40 in 10.0 mi ENE 4.6 mph - N/A   Scattered Clouds
10:53 AM 51.1 °F 40.1 °F 66% 30.40 in 10.0 mi ENE 6.9 mph - N/A   Scattered Clouds
11:13 AM 51.4 °F 39.4 °F 63% 30.40 in 10.0 mi East 6.9 mph - N/A   Scattered Clouds
11:33 AM 52.2 °F 38.5 °F 60% 30.40 in 10.0 mi ENE 8.1 mph - N/A   Clear
11:54 AM 52.7 °F 39.0 °F 60% 30.41 in 10.0 mi NE 5.8 mph - N/A   Clear
12:14 PM 53.1 °F 39.4 °F 60% 30.41 in 10.0 mi NE 6.9 mph - N/A   Clear
12:34 PM 53.6 °F 39.2 °F 58% 30.41 in 10.0 mi ESE 6.9 mph - N/A   Scattered Clouds
12:54 PM 54.7 °F 39.6 °F 57% 30.41 in 10.0 mi East 6.9 mph - N/A   Clear
1:14 PM 55.2 °F 39.4 °F 55% 30.41 in 10.0 mi North 6.9 mph - N/A   Clear
1:34 PM 56.1 °F 40.1 °F 55% 30.41 in 10.0 mi ESE 6.9 mph - N/A   Clear
1:54 PM 56.8 °F 42.1 °F 58% 30.41 in 10.0 mi Calm Calm - N/A   Scattered Clouds
2:14 PM 56.3 °F 41.0 °F 57% 30.41 in 10.0 mi NNE 4.6 mph - N/A   Clear
2:34 PM 57.0 °F 42.1 °F 57% 30.40 in 10.0 mi North 8.1 mph - N/A   Clear
2:55 PM 56.5 °F 41.4 °F 57% 30.40 in 10.0 mi NNW 9.2 mph - N/A   Clear
3:15 PM 56.5 °F 41.7 °F 58% 30.39 in 10.0 mi North 6.9 mph 16.1 mph N/A   Clear
3:35 PM 57.4 °F 42.4 °F 57% 30.39 in 10.0 mi NNE 8.1 mph - N/A   Clear
3:55 PM 56.7 °F 42.1 °F 58% 30.39 in 10.0 mi North 10.4 mph - N/A   Clear
4:15 PM 57.4 °F 43.0 °F 59% 30.38 in 10.0 mi NNW 6.9 mph - N/A   Clear
4:35 PM 56.8 °F 42.6 °F 59% 30.38 in 10.0 mi NNW 8.1 mph - N/A   Clear
4:55 PM 56.3 °F 42.3 °F 59% 30.38 in 10.0 mi North 8.1 mph - N/A   Clear
5:15 PM 56.7 °F 42.6 °F 59% 30.38 in 10.0 mi NNW 10.4 mph - N/A   Clear
5:35 PM 55.9 °F 43.0 °F 62% 30.38 in 10.0 mi North 9.2 mph - N/A   Clear
5:56 PM 56.5 °F 42.6 °F 60% 30.38 in 10.0 mi North 6.9 mph - N/A   Clear
6:16 PM 55.4 °F 42.3 °F 61% 30.38 in 10.0 mi North 8.1 mph - N/A   Clear
6:36 PM 55.0 °F 42.8 °F 63% 30.37 in 10.0 mi North 6.9 mph - N/A   Clear
6:56 PM 54.7 °F 43.2 °F 65% 30.38 in 10.0 mi North 3.5 mph - N/A   Clear
7:16 PM 53.8 °F 43.2 °F 67% 30.37 in 10.0 mi North 4.6 mph - N/A   Clear
7:31 PM 52.9 °F 42.8 °F 69% 30.37 in 10.0 mi NNE 4.6 mph - N/A   Clear
7:51 PM 51.3 °F 42.4 °F 72% 30.37 in 10.0 mi Calm Calm - N/A   Clear
8:11 PM 50.5 °F 42.8 °F 75% 30.37 in 10.0 mi NNE 3.5 mph - N/A   Clear
8:31 PM 50.0 °F 42.8 °F 76% 30.37 in 10.0 mi Calm Calm - N/A   Clear
8:52 PM 48.6 °F 42.1 °F 78% 30.38 in 10.0 mi Calm Calm - N/A   Clear
9:12 PM 45.9 °F 42.3 °F 87% 30.38 in 10.0 mi Calm Calm - N/A   Clear
9:32 PM 44.8 °F 41.9 °F 90% 30.38 in 10.0 mi Calm Calm - N/A   Clear
9:52 PM 44.4 °F 41.5 °F 90% 30.37 in 7.0 mi Calm Calm - N/A   Clear
10:12 PM 43.3 °F 41.2 °F 92% 30.37 in 10.0 mi Calm Calm - N/A   Clear
10:32 PM 42.8 °F 40.3 °F 91% 30.38 in 10.0 mi Calm Calm - N/A   Clear
10:52 PM 42.3 °F 40.1 °F 92% 30.37 in 10.0 mi Calm Calm - N/A   Clear
11:12 PM 42.8 °F 40.5 °F 91% 30.38 in 10.0 mi Calm Calm - N/A   Clear
11:32 PM 41.4 °F 39.2 °F 92% 30.38 in 10.0 mi Calm Calm - N/A   Clear
11:52 PM 41.2 °F 39.4 °F 93% 30.38 in 10.0 mi Calm Calm - N/A   Clear